• In Netherlands
  • List of Countries
  • For 7 days
  • Water Temperature
  • Satellite Maps
  • Weather Map
  • Weather Widgets
  • user-avatar
    Login

    Hourly Weather Quito

    Today, 28 May, Sunday

    Time Temperature Precipitation Wind Pressure Humidity
    00:00 +18°C° 0 mm 1 mps 624 mmHg 78%
    01:00 +18°C° 0 mm 1 mps 624 mmHg 79%
    02:00 +18°C° 0 mm 1 mps 624 mmHg 80%
    03:00 +16°C° 0 mm 1 mps 624 mmHg 81%
    04:00 +16°C° 0 mm 1 mps 624 mmHg 82%
    05:00 +16°C° 0.1 mm 1 mps 624 mmHg 82%
    06:00 +16°C° 0.1 mm 1 mps 624 mmHg 82%
    07:00 +18°C° 0.1 mm 1 mps 624 mmHg 82%
    08:00 +19°C° 0 mm 1 mps 625 mmHg 75%
    09:00 +20°C° 0 mm 1 mps 626 mmHg 68%
    10:00 +21°C° 0 mm 2 mps 626 mmHg 61%
    11:00 +23°C° 0 mm 2 mps 626 mmHg 53%
    12:00 +25°C° 0 mm 2 mps 626 mmHg 46%
    13:00 +27°C° 0 mm 2 mps 626 mmHg 38%
    14:00 +27°C° 0.1 mm 2 mps 626 mmHg 39%
    15:00 +26°C° 0.1 mm 2 mps 625 mmHg 41%
    16:00 +26°C° 0.1 mm 2 mps 625 mmHg 42%
    17:00 +23°C° 0.2 mm 1 mps 624 mmHg 51%
    18:00 +21°C° 0.2 mm 1 mps 624 mmHg 60%
    19:00 +16°C° 0.2 mm 0 mps 623 mmHg 69%
    20:00 +16°C° 0 mm 0 mps 623 mmHg 69%
    21:00 +16°C° 0 mm 0 mps 624 mmHg 69%
    22:00 +16°C° 0 mm 0 mps 624 mmHg 69%
    23:00 +16°C° 0 mm 1 mps 624 mmHg 70%

    Tomorrow, 29 May, Monday

    Time Temperature Precipitation Wind Pressure Humidity
    00:00 +16°C° 0 mm 1 mps 624 mmHg 72%
    01:00 +16°C° 0 mm 1 mps 623 mmHg 73%
    02:00 +15°C° 0 mm 1 mps 623 mmHg 75%
    03:00 +15°C° 0 mm 1 mps 623 mmHg 77%
    04:00 +14°C° 0 mm 1 mps 623 mmHg 79%
    05:00 +15°C° 0 mm 1 mps 623 mmHg 77%
    06:00 +15°C° 0 mm 1 mps 624 mmHg 76%
    07:00 +16°C° 0 mm 1 mps 625 mmHg 74%
    08:00 +18°C° 0 mm 1 mps 625 mmHg 68%
    09:00 +18°C° 0 mm 2 mps 626 mmHg 61%
    10:00 +19°C° 0 mm 2 mps 626 mmHg 55%
    11:00 +21°C° 0 mm 2 mps 627 mmHg 47%
    12:00 +24°C° 0 mm 2 mps 627 mmHg 40%
    13:00 +26°C° 0 mm 3 mps 627 mmHg 32%
    14:00 +26°C° 0 mm 2 mps 626 mmHg 33%
    15:00 +25°C° 0 mm 2 mps 626 mmHg 34%
    16:00 +25°C° 0 mm 2 mps 626 mmHg 35%
    17:00 +22°C° 0 mm 1 mps 625 mmHg 45%
    18:00 +19°C° 0 mm 1 mps 624 mmHg 54%
    19:00 +16°C° 0 mm 1 mps 623 mmHg 63%
    20:00 +16°C° 0 mm 1 mps 624 mmHg 61%
    21:00 +16°C° 0 mm 1 mps 624 mmHg 58%
    22:00 +15°C° 0 mm 1 mps 625 mmHg 55%
    23:00 +16°C° 0 mm 1 mps 625 mmHg 53%

    Day after tomorrow, 30 May, Tuesday

    Time Temperature Precipitation Wind Pressure Humidity
    00:00 +16°C° 0 mm 1 mps 625 mmHg 52%
    01:00 +18°C° 0 mm 1 mps 625 mmHg 50%
    02:00 +16°C° 0 mm 1 mps 624 mmHg 49%
    03:00 +16°C° 0 mm 1 mps 624 mmHg 49%
    04:00 +16°C° 0 mm 2 mps 624 mmHg 48%
    05:00 +16°C° 0 mm 2 mps 625 mmHg 50%
    06:00 +16°C° 0 mm 1 mps 625 mmHg 51%
    07:00 +16°C° 0 mm 1 mps 625 mmHg 53%
    08:00 +18°C° 0 mm 2 mps 626 mmHg 47%
    09:00 +20°C° 0 mm 3 mps 627 mmHg 40%
    10:00 +23°C° 0 mm 4 mps 628 mmHg 34%
    11:00 +25°C° 0 mm 4 mps 627 mmHg 32%
    12:00 +26°C° 0 mm 3 mps 627 mmHg 30%
    13:00 +27°C° 0 mm 3 mps 627 mmHg 28%
    14:00 +27°C° 0 mm 3 mps 626 mmHg 30%
    15:00 +26°C° 0 mm 2 mps 626 mmHg 31%
    16:00 +26°C° 0 mm 2 mps 625 mmHg 33%
    17:00 +24°C° 0 mm 2 mps 625 mmHg 37%
    18:00 +21°C° 0 mm 2 mps 625 mmHg 41%
    19:00 +20°C° 0 mm 1 mps 625 mmHg 46%
    20:00 +20°C° 0 mm 1 mps 625 mmHg 47%
    21:00 +19°C° 0 mm 1 mps 625 mmHg 48%
    22:00 +19°C° 0 mm 1 mps 626 mmHg 49%
    23:00 +19°C° 0 mm 1 mps 625 mmHg 50%

    31 May, Wednesday

    Time Temperature Precipitation Wind Pressure Humidity
    00:00 +18°C° 0 mm 1 mps 625 mmHg 51%
    01:00 +18°C° 0 mm 1 mps 625 mmHg 53%
    02:00 +16°C° 0 mm 2 mps 624 mmHg 56%
    03:00 +14°C° 0 mm 2 mps 624 mmHg 60%
    04:00 +13°C° 0 mm 2 mps 623 mmHg 63%
    05:00 +13°C° 0 mm 2 mps 624 mmHg 64%
    06:00 +14°C° 0 mm 2 mps 625 mmHg 64%
    07:00 +14°C° 0 mm 2 mps 625 mmHg 65%
    08:00 +16°C° 0 mm 2 mps 626 mmHg 56%
    09:00 +19°C° 0 mm 3 mps 627 mmHg 46%
    10:00 +22°C° 0 mm 4 mps 628 mmHg 37%
    11:00 +24°C° 0 mm 3 mps 627 mmHg 33%
    12:00 +25°C° 0 mm 3 mps 627 mmHg 30%
    13:00 +27°C° 0 mm 3 mps 627 mmHg 27%
    14:00 +26°C° 0 mm 3 mps 626 mmHg 27%
    15:00 +26°C° 0 mm 3 mps 626 mmHg 27%
    16:00 +26°C° 0 mm 3 mps 625 mmHg 28%
    17:00 +23°C° 0 mm 2 mps 625 mmHg 35%
    18:00 +18°C° 0 mm 2 mps 624 mmHg 43%
    19:00 +15°C° 0 mm 2 mps 624 mmHg 50%
    20:00 +15°C° 0 mm 2 mps 624 mmHg 53%
    21:00 +14°C° 0 mm 2 mps 624 mmHg 56%
    22:00 +13°C° 0 mm 2 mps 624 mmHg 58%
    23:00 +12°C° 0 mm 2 mps 624 mmHg 62%

    1 June, Thursday

    Time Temperature Precipitation Wind Pressure Humidity
    00:00 +10°C° 0 mm 2 mps 623 mmHg 65%
    01:00 +11°C° 0 mm 1 mps 623 mmHg 68%
    02:00 +10°C° 0 mm 1 mps 623 mmHg 70%
    03:00 +10°C° 0 mm 1 mps 623 mmHg 72%
    04:00 +10°C° 0 mm 1 mps 623 mmHg 74%
    05:00 +10°C° 0 mm 1 mps 623 mmHg 72%
    06:00 +11°C° 0 mm 1 mps 624 mmHg 69%
    07:00 +12°C° 0 mm 1 mps 625 mmHg 67%
    08:00 +15°C° 0 mm 2 mps 626 mmHg 56%
    09:00 +18°C° 0 mm 3 mps 627 mmHg 44%
    10:00 +21°C° 0 mm 4 mps 628 mmHg 33%
    11:00 +22°C° 0 mm 3 mps 627 mmHg 30%
    12:00 +24°C° 0 mm 3 mps 627 mmHg 27%
    13:00 +25°C° 0 mm 3 mps 626 mmHg 23%
    14:00 +25°C° 0 mm 3 mps 626 mmHg 24%
    15:00 +25°C° 0 mm 3 mps 625 mmHg 24%
    16:00 +24°C° 0 mm 2 mps 625 mmHg 24%
    17:00 +20°C° 0 mm 2 mps 624 mmHg 31%
    18:00 +16°C° 0 mm 2 mps 624 mmHg 38%
    19:00 +13°C° 0 mm 2 mps 623 mmHg 45%
    20:00 +12°C° 0 mm 2 mps 623 mmHg 48%
    21:00 +12°C° 0 mm 2 mps 623 mmHg 50%
    22:00 +10°C° 0 mm 2 mps 623 mmHg 53%
    23:00 +11°C° 0 mm 1 mps 623 mmHg 56%

    2 June, Friday

    Time Temperature Precipitation Wind Pressure Humidity
    00:00 +10°C° 0 mm 1 mps 622 mmHg 59%
    01:00 +9°C° 0 mm 1 mps 622 mmHg 61%
    02:00 +9°C° 0 mm 1 mps 622 mmHg 63%
    03:00 +9°C° 0 mm 1 mps 622 mmHg 65%
    04:00 +8°C° 0 mm 1 mps 622 mmHg 66%
    05:00 +9°C° 0 mm 1 mps 622 mmHg 63%
    06:00 +10°C° 0 mm 1 mps 623 mmHg 61%
    07:00 +11°C° 0 mm 1 mps 624 mmHg 58%
    08:00 +14°C° 0 mm 2 mps 625 mmHg 48%
    09:00 +18°C° 0 mm 2 mps 626 mmHg 37%
    10:00 +21°C° 0 mm 3 mps 627 mmHg 27%
    11:00 +23°C° 0 mm 2 mps 627 mmHg 25%
    12:00 +25°C° 0 mm 2 mps 627 mmHg 22%
    13:00 +26°C° 0 mm 1 mps 626 mmHg 19%
    14:00 +26°C° 0 mm 1 mps 626 mmHg 20%
    15:00 +25°C° 0 mm 1 mps 625 mmHg 20%
    16:00 +25°C° 0 mm 1 mps 625 mmHg 21%
    17:00 +21°C° 0 mm 1 mps 624 mmHg 28%
    18:00 +16°C° 0 mm 1 mps 623 mmHg 35%
    19:00 +13°C° 0 mm 1 mps 622 mmHg 43%
    20:00 +12°C° 0 mm 1 mps 622 mmHg 47%
    21:00 +11°C° 0 mm 1 mps 622 mmHg 51%
    22:00 +11°C° 0 mm 1 mps 622 mmHg 55%
    23:00 +10°C° 0 mm 1 mps 621 mmHg 58%
    Show more